Location: Newark
(33.6439°N, 114.9881°W)
Time: 15:05:06
(UTC+00:00)

S-56A Canister/Altair - Visible Passes

Search period start: 20 August 2019 00:00
Search period end: 30 August 2019 00:00
Orbit: 633 x 2499 km, 38.9° (Epoch: 19 August)

Date Brightness Start Highest point End Pass type
(mag) Time Alt. Az. Time Alt. Az. Time Alt. Az.
20 Aug 8.3 03:29:45 10° SSW 03:34:01 25° SSE 03:34:51 24° SE visible
20 Aug 9.3 09:48:59 33° ESE 09:48:59 33° ESE 09:53:15 10° ESE visible
20 Aug 9.1 11:46:29 22° WSW 11:49:56 34° SSW 11:58:11 10° SSE visible
21 Aug 8.7 02:57:15 10° SSW 03:01:27 22° SSE 03:04:36 12° E visible
21 Aug 9.0 05:00:09 10° WSW 05:02:05 23° WSW 05:02:05 23° WSW visible
21 Aug 10.4 09:19:06 13° ESE 09:19:06 13° ESE 09:19:55 10° ESE visible
21 Aug 8.7 11:16:36 37° SW 11:17:08 37° SSW 11:25:01 10° SSE visible
22 Aug 7.3 04:27:23 10° WSW 04:31:43 64° SW 04:31:43 64° SW visible
22 Aug 9.2 10:46:48 31° SSE 10:46:48 31° SSE 10:51:53 10° SE visible
23 Aug 7.1 03:54:32 10° WSW 03:59:53 72° SSE 04:01:15 45° E visible
23 Aug 10.1 10:17:01 16° SE 10:17:01 16° SE 10:18:46 10° SE visible
23 Aug 9.9 12:14:33 12° SW 12:16:02 12° SW 12:19:05 10° SSW visible
24 Aug 7.4 03:21:39 10° SW 03:27:22 62° SSE 03:30:40 18° ENE visible
24 Aug 9.5 05:26:36 10° W 05:28:07 19° WNW 05:28:07 19° WNW visible
24 Aug 10.1 11:44:46 13° SSW 11:44:46 13° SSW 11:46:50 10° S visible
25 Aug 7.7 02:48:42 10° SW 02:54:48 54° SSE 02:59:24 10° ENE visible
25 Aug 8.3 04:53:44 10° W 04:57:26 41° NW 04:57:26 41° NW visible
26 Aug 7.7 04:20:47 10° W 04:25:59 57° NNW 04:26:41 51° NNE visible
27 Aug 7.7 03:47:45 10° W 03:53:25 63° NNW 03:55:52 27° ENE visible
27 Aug 10.2 05:53:05 10° WNW 05:53:18 11° WNW 05:53:18 11° WNW visible
28 Aug 7.7 03:14:36 10° WSW 03:20:50 71° NNW 03:25:00 13° ENE visible
28 Aug 9.4 05:20:18 10° WNW 05:22:26 23° WNW 05:22:26 23° WNW visible
29 Aug 7.8 02:41:24 10° WSW 02:48:13 80° NNW 02:53:07 10° ENE visible
29 Aug 8.4 04:47:24 10° WNW 04:51:31 40° NNW 04:51:31 40° NNW visible
